Вернуться в каталог

BREEZE-M DEB

LostHEO
NORAD 39329·DEBRIS·🇷🇺 Russia

Запущен Mar 14, 2008 с Baikonur Cosmodrome

Loading…

Ближайшие Пролёты (ближайшие 24 часа)

TLE

УстаревшееSource: Space-Track

Эпоха: Apr 4, 2014, 09:27 UTC

1 39329U 08011DG  14094.39439706 -.00000145  00000-0 -31153-2 0  9992
2 39329  48.8877 118.1145 6453301 309.5749 188.3660  3.06676231 27601

Отслеживайте BREEZE-M DEB в реальном времени с AllMySat

Download on the App Store